This demonstration page uses our WeatherBlox Daily Observations layout. Learn more.

Left ArrowRight Arrow

Hourly Observations for September 27, 2022

Temp ( °F °C ) Dew Point ( °F °C ) Humidity (%) Winds ( mph kmh ) Pressure ( in mb ) Visibility ( mi km ) Precip ( " mm )
12:52 am 00:52 Clear 50 10 39 3.9 66 66 Calm 30.12 1020 10 16 0.00 0.00
1:52 am 01:52 Clear 49 9.4 39 3.9 68 68 Calm 30.12 1020 10 16 0.00 0.00
2:52 am 02:52 Clear 47 8.3 40 4.4 76 76 SSE 3 6 30.11 1020 10 16 0.00 0.00
3:52 am 03:52 Clear 48 8.9 40 4.4 73 73 S 3 6 30.12 1020 10 16 0.00 0.00
4:52 am 04:52 Clear 47 8.3 40 4.4 76 76 SSE 5 7 30.12 1020 10 16 0.00 0.00
5:52 am 05:52 Clear 48 8.9 40 4.4 73 73 S 3 6 30.13 1020 10 16 0.00 0.00
6:52 am 06:52 Clear 47 8.3 39 3.9 74 74 SSE 6 9 30.15 1021 10 16 0.00 0.00
7:52 am 07:52 Sunny 50 10 41 5 71 71 S 5 7 30.16 1022 10 16 0.00 0.00
8:52 am 08:52 Sunny 58 14.4 42 5.6 55 55 S 7 11 30.17 1022 9 14 0.00 0.00
9:52 am 09:52 Sunny 66 18.9 42 5.6 42 42 SSE 7 11 30.18 1022 10 16 0.00 0.00
10:52 am 10:52 Mostly Cloudy 71 21.7 42 5.6 35 35 S 3 6 30.18 1022 10 16 0.00 0.00
11:52 am 11:52 Sunny 74 23.3 40 4.4 29 29 VRB 5 7 30.19 1022 10 16 0.00 0.00
12:52 pm 12:52 Sunny 78 25.6 39 3.9 25 25 undefined N/A 30.17 1022 10 16 0.00 0.00
1:52 pm 13:52 Sunny 78 25.6 40 4.4 25 25 VRB 3 6 30.14 1021 10 16 0.00 0.00
2:52 pm 14:52 Sunny 80 26.7 41 5 25 25 SSW 7 11 30.12 1020 10 16 0.00 0.00
3:52 pm 15:52 Sunny 80 26.7 41 5 25 25 SW 9 15 30.11 1020 10 16 0.00 0.00
4:52 pm 16:52 Sunny 80 26.7 41 5 25 25 SSE 6 9 30.10 1019 10 16 0.00 0.00
5:52 pm 17:52 Sunny 79 26.1 42 5.6 27 27 SSW 5 7 30.11 1020 10 16 0.00 0.00
6:52 pm 18:52 Sunny 76 24.4 43 6.1 31 31 NNE 3 6 30.12 1020 10 16 0.00 0.00
7:52 pm 19:52 Clear 68 20 44 6.7 42 42 E 7 11 30.14 1021 10 16 0.00 0.00
8:52 pm 20:52 Clear 68 20 44 6.7 42 42 E 8 13 30.15 1021 10 16 0.00 0.00
9:52 pm 21:52 Clear 66 18.9 44 6.7 45 45 E 7 11 30.17 1022 10 16 0.00 0.00
10:52 pm 22:52 Clear 60 15.6 45 7.2 57 57 SE 6 9 30.19 1023 10 16 0.00 0.00
11:52 pm 23:52 Clear 63 17.2 45 7.2 52 52 E 7 11 30.21 1023 10 16 0.00 0.00

Powered by AerisWeather